Weather History for KPEQ - May, 2013

Change the Weather History Date:

Sunday, May 26, 2013

  Actual Average Record
Temperature  
Mean Temperature 80 °F -  
Max Temperature 97 °F 95 °F 107 °F (2006)
Min Temperature 62 °F 60 °F 44 °F (1947)
Cooling Degree Days 14    
Growing Degree Days 30 (Base 50)    
Moisture  
Dew Point 58 °F    
Average Humidity 65    
Maximum Humidity 90    
Minimum Humidity 20    
Precipitation  
Precipitation 0.03 in - - ()
Sea Level Pressure  
Sea Level Pressure 29.96 in    
Wind  
Wind Speed 15 mph (East)    
Max Wind Speed 40 mph    
Max Gust Speed 53 mph    
Visibility 10 miles    
Events      
Averages and records for this station are not official NWS values.
T = Trace of Precipitation, MM = Missing Value Source: NWS Daily Summary

Daily Weather History Graph

Daily Weather History Graph

Search for Another Location

Airport or City:

Trip Planner

Search our weather history database for the weather conditions in past years. The results will help you decide how hot, cold, wet, or windy it might be!

Date:

Astronomy

May. 26, 2013 Rise Set
Actual Time 6:52 AM CDT 8:50 PM CDT
Civil Twilight 6:24 AM CDT 9:17 PM CDT
Nautical Twilight 5:51 AM CDT 9:50 PM CDT
Astronomical Twilight 5:16 AM CDT 10:26 PM CDT
Moon 10:42 PM CDT (5/26) 8:22 AM CDT (5/26)
Length of Visible Light 14h 53m
Length of Day
13h 58m
Waning Gibbous, 96% of the Moon is Illuminated
May 26
Waning Gibbous
May 31
Last Quarter
Jun 8
New
Jun 16
First Quarter
Jun 23
Full

Hourly Weather History & Observations

Time (CDT) Temp. Heat Index Dew Point Humidity Pressure Visibility Wind Dir Wind Speed Gust Speed Precip Events Conditions
12:35 AM 65.8 °F - 55.6 °F 69% 29.96 in 10.0 mi ENE 39.1 mph 52.9 mph 0.03 in   Light Drizzle
12:55 AM 66.6 °F - 57.4 °F 72% 29.98 in 10.0 mi ESE 40.3 mph 46.0 mph 0.03 in   Clear
1:35 AM 68.9 °F - 55.4 °F 62% 29.96 in 10.0 mi ESE 15.0 mph - N/A   Clear
1:55 AM 67.1 °F - 56.1 °F 68% 29.98 in 10.0 mi SE 17.3 mph 20.7 mph N/A   Clear
2:15 AM 65.5 °F - 56.5 °F 73% 29.98 in 10.0 mi ESE 10.4 mph - N/A   Clear
2:35 AM 66.7 °F - 57.2 °F 71% 29.98 in 10.0 mi ESE 9.2 mph - N/A   Clear
2:55 AM 66.7 °F - 57.9 °F 73% 29.97 in 10.0 mi SE 10.4 mph - N/A   Clear
3:15 AM 69.1 °F - 59.9 °F 72% 29.96 in 10.0 mi SE 15.0 mph 18.4 mph N/A   Clear
3:35 AM 68.9 °F - 59.9 °F 73% 29.96 in 10.0 mi SE 12.7 mph - N/A   Clear
3:55 AM 68.0 °F - 59.9 °F 75% 29.98 in 10.0 mi South 12.7 mph - N/A   Clear
4:15 AM 66.4 °F - 59.2 °F 78% 29.99 in 10.0 mi South 11.5 mph - N/A   Clear
4:35 AM 66.7 °F - 59.9 °F 79% 30.00 in 10.0 mi SSE 5.8 mph - N/A   Clear
4:55 AM 65.1 °F - 59.5 °F 82% 29.99 in 10.0 mi East 4.6 mph - N/A   Clear
5:15 AM 63.5 °F - 59.2 °F 86% 29.98 in 10.0 mi NE 3.5 mph - N/A   Clear
5:35 AM 63.9 °F - 59.7 °F 86% 29.99 in 10.0 mi NW 4.6 mph - N/A   Clear
5:55 AM 62.8 °F - 59.5 °F 89% 29.99 in 10.0 mi NNE 3.5 mph - N/A   Clear
6:15 AM 62.8 °F - 59.7 °F 90% 29.99 in 10.0 mi NNW 3.5 mph - N/A   Clear
6:35 AM 62.4 °F - 59.5 °F 90% 30.00 in 10.0 mi NNE 3.5 mph - N/A   Clear
6:55 AM 62.6 °F - 59.4 °F 89% 29.99 in 10.0 mi ENE 6.9 mph - N/A   Clear
7:15 AM 62.2 °F - 59.4 °F 90% 29.99 in 10.0 mi NE 5.8 mph - N/A   Clear
7:35 AM 62.6 °F - 59.4 °F 89% 30.00 in 10.0 mi ENE 6.9 mph - N/A   Clear
7:55 AM 64.8 °F - 60.8 °F 87% 30.00 in 10.0 mi ENE 4.6 mph - N/A   Clear
8:15 AM 67.3 °F - 61.7 °F 82% 30.01 in 10.0 mi East 5.8 mph - N/A   Clear
8:35 AM 68.9 °F - 62.2 °F 79% 30.01 in 10.0 mi East 5.8 mph - N/A   Clear
8:55 AM 69.6 °F - 62.6 °F 78% 30.01 in 10.0 mi ESE 4.6 mph - N/A   Clear
9:15 AM 71.1 °F - 62.8 °F 75% 30.02 in 10.0 mi SSE 5.8 mph - N/A   Clear
10:35 AM 75.7 °F - 63.1 °F 65% 30.00 in 10.0 mi Calm Calm - N/A   Clear
10:55 AM 76.8 °F - 62.8 °F 62% 30.00 in 10.0 mi ENE 3.5 mph - N/A   Clear
11:15 AM 79.2 °F - 62.6 °F 57% 30.00 in 10.0 mi East 5.8 mph - N/A   Clear
12:15 PM 83.7 °F 83.6 °F 59.5 °F 44% 29.98 in 10.0 mi East 8.1 mph - N/A   Clear
12:55 PM 86.0 °F 85.0 °F 57.4 °F 38% 29.98 in 10.0 mi SSE 3.5 mph - N/A   Clear
1:15 PM 87.1 °F 85.7 °F 56.1 °F 35% 29.97 in 10.0 mi Calm Calm - N/A   Clear
3:35 PM 94.1 °F - 51.3 °F 23% 29.91 in 10.0 mi Calm Calm - N/A   Clear
4:15 PM 95.5 °F - 49.6 °F 21% 29.89 in 10.0 mi East 5.8 mph - N/A   Clear
4:35 PM 96.1 °F - 50.7 °F 21% 29.88 in 10.0 mi ESE 9.2 mph - N/A   Clear
6:55 PM 97.0 °F - 49.6 °F 20% 29.83 in 10.0 mi ESE 8.1 mph - N/A   Clear
7:15 PM 96.4 °F - 50.0 °F 21% 29.82 in 10.0 mi East 10.4 mph - N/A   Clear
7:35 PM 93.6 °F 92.1 °F 57.2 °F 29% 29.82 in 10.0 mi East 12.7 mph 21.9 mph N/A   Clear
11:55 PM 79.2 °F - 62.2 °F 56% 29.88 in 10.0 mi SE 19.6 mph 27.6 mph N/A   Clear